Temp
-10 -10 -10 -10 -9 -9 -9 -9 -9 -9 -9 -9 -8 -8 -8 -8 -9 -9 -9 -9 -9 -9 -9 -9 -9 -8 -8 -8 -8 -8 -8 -8 -8 -7 -7 -7 -7 -7 -7 -7 -7 -7 -7
-10 -10 -10 -10 -10 -10 -9 -9 -9 -9 -9 -9 -9 -9 -9 -8 -9 -9 -9 -9 -9 -9 -9 -9 -9 -9 -8 -8 -8 -8 -8 -8 -8 -8 -7 -7 -7 -7 -7 -7 -7 -7 -7
-10 -10 -10 -10 -10 -10 -10 -10 -10 -9 -9 -9 -9 -9 -9 -9 -9 -9 -9 -9 -9 -9 -9 -9 -9 -9 -8 -8 -8 -8 -8 -8 -8 -8 -8 -8 -7 -7 -7 -7 -7 -7 -7
-11 -10 -10 -10 -10 -10 -10 -10 -10 -10 -10 -10 -9 -9 -9 -9 -9 -9 -9 -9 -9 -9 -9 -9 -9 -9 -9 -9 -9 -8 -8 -8 -8 -8 -8 -8 -8 -8 -8 -7 -7 -7 -7
-11 -11 -11 -11 -11 -11 -11 -11 -10 -10 -10 -10 -10 -10 -10 -9 -9 -9 -9 -9 -9 -9 -9 -9 -9 -9 -9 -9 -9 -9 -9 -8 -8 -8 -9 -8 -8 -8 -8 -8 -8 -8 -8
-12 -12 -12 -11 -12 -12 -11 -11 -11 -11 -11 -10 -10 -10 -10 -10 -10 -10 -10 -10 -10 -10 -10 -9 -9 -9 -9 -9 -9 -9 -9 -9 -9 -9 -9 -9 -8 -8 -8 -8 -8 -8 -8
-12 -11 -11 -12 -12 -12 -12 -12 -11 -11 -11 -11 -11 -10 -10 -10 -10 -10 -10 -10 -10 -10 -10 -10 -9 -9 -9 -9 -9 -9 -9 -9 -9 -9 -9 -9 -9 -9 -8 -8 -8 -8 -8
-12 -11 -11 -12 -13 -12 -12 -12 -12 -12 -11 -11 -11 -11 -11 -11 -11 -10 -10 -10 -10 -10 -10 -10 -10 -10 -9 -9 -9 -9 -9 -9 -9 -9 -9 -9 -9 -9 -9 -9 -8 -8 -9
-12 -12 -11 -12 -12 -12 -12 -12 -12 -12 -12 -12 -12 -11 -11 -11 -11 -11 -11 -10 -10 -10 -10 -10 -10 -10 -9 -9 -9 -9 -9 -10 -10 -9 -9 -9 -9 -9 -9 -9 -9 -9 -9
-12 -12 -12 -12 -12 -12 -12 -12 -12 -12 -12 -11 -12 -12 -12 -11 -11 -11 -11 -11 -11 -10 -10 -10 -10 -10 -10 -10 -9 -9 -9 -10 -10 -10 -10 -10 -10 -9 -9 -9 -9 -9 -9
-12 -12 -12 -12 -12 -12 -12 -12 -12 -12 -12 -12 -12 -11 -11 -11 -11 -12 -11 -11 -11 -11 -11 -11 -11 -11 -11 -10 -10 -10 -9 -10 -10 -10 -10 -10 -10 -10 -10 -9 -9 -9 -9
-12 -13 -12 -12 -12 -12 -12 -12 -12 -12 -12 -12 -12 -12 -11 -11 -11 -11 -11 -11 -11 -11 -11 -11 -11 -11 -11 -10 -10 -10 -10 -10 -10 -10 -10 -10 -10 -10 -10 -10 -10 -10 -9
-13 -13 -13 -13 -13 -13 -13 -12 -12 -12 -12 -12 -12 -12 -11 -11 -11 -11 -11 -11 -11 -11 -11 -11 -11 -11 -11 -11 -10 -10 -10 -10 -10 -10 -10 -10 -10 -10 -10 -10 -10 -10 -10
-13 -13 -13 -13 -13 -13 -13 -13 -13 -13 -13 -12 -12 -12 -12 -12 -12 -12 -12 -11 -11 -11 -11 -11 -11 -11 -11 -11 -11 -10 -11 -11 -11 -10 -10 -10 -10 -10 -10 -10 -10 -10 -10
-13 -13 -13 -13 -13 -13 -13 -13 -13 -13 -13 -13 -13 -12 -12 -12 -12 -12 -12 -12 -12 -12 -12 -12 -12 -12 -11 -11 -11 -11 -11 -11 -11 -12 -12 -11 -10 -10 -10 -11 -10 -10 -10
-14 -14 -14 -14 -14 -14 -13 -13 -13 -13 -13 -13 -13 -13 -13 -12 -12 -12 -12 -12 -12 -12 -12 -12 -12 -12 -12 -11 -12 -11 -11 -11 -11 -11 -12 -12 -11 -11 -10 -10 -11 -11 -11
-14 -14 -14 -14 -14 -14 -14 -13 -13 -13 -13 -13 -13 -13 -13 -13 -13 -13 -12 -12 -12 -12 -12 -12 -12 -12 -12 -12 -12 -12 -12 -12 -11 -12 -11 -12 -12 -11 -11 -11 -11 -11 -11
-14 -14 -14 -14 -14 -14 -14 -14 -13 -13 -13 -13 -13 -13 -13 -13 -13 -13 -13 -13 -12 -12 -12 -12 -12 -12 -12 -12 -12 -11 -12 -12 -12 -12 -12 -12 -12 -11 -11 -11 -11 -11 -11
-15 -14 -14 -14 -14 -14 -14 -14 -14 -14 -14 -14 -14 -14 -14 -13 -14 -14 -13 -13 -13 -13 -13 -13 -12 -12 -12 -12 -13 -12 -12 -12 -12 -12 -12 -12 -12 -12 -12 -12 -12 -11 -11
-15 -15 -14 -14 -14 -14 -14 -14 -14 -14 -14 -14 -14 -14 -14 -14 -14 -14 -14 -14 -14 -13 -13 -13 -13 -13 -12 -12 -13 -13 -13 -12 -12 -12 -13 -13 -12 -13 -13 -13 -12 -12 -12
-15 -15 -15 -15 -15 -15 -15 -14 -14 -15 -15 -15 -15 -15 -15 -15 -15 -15 -15 -14 -14 -14 -13 -13 -13 -13 -13 -13 -13 -13 -14 -14 -13 -12 -12 -13 -13 -13 -13 -13 -13 -13 -12
-15 -15 -15 -15 -15 -15 -15 -15 -15 -15 -15 -15 -15 -15 -15 -15 -15 -15 -15 -15 -14 -14 -14 -14 -14 -13 -14 -14 -14 -14 -14 -14 -15 -14 -14 -14 -13 -13 -13 -13 -13 -13 -13
-16 -16 -16 -15 -15 -15 -15 -15 -14 -15 -15 -15 -15 -15 -15 -15 -15 -15 -15 -15 -15 -15 -14 -15 -15 -14 -14 -15 -15 -15 -15 -15 -15 -15 -15 -15 -14 -14 -14 -13 -13 -14 -14
-16 -16 -16 -16 -15 -15 -15 -14 -15 -15 -15 -15 -15 -16 -16 -16 -15 -15 -15 -15 -15 -15 -15 -15 -15 -15 -15 -15 -16 -15 -15 -15 -16 -16 -16 -17 -15 -14 -15 -14 -14 -15 -16
-16 -16 -16 -16 -15 -15 -15 -15 -15 -15 -15 -16 -16 -16 -16 -16 -16 -15 -15 -15 -15 -15 -16 -16 -16 -17 -16 -16 -16 -16 -16 -16 -16 -16 -16 -16 -15 -16 -15 -14 -16 -16 -16
-16 -16 -16 -16 -15 -15 -15 -15 -15 -15 -15 -16 -16 -16 -16 -16 -16 -15 -15 -16 -16 -17 -17 -17 -17 -17 -17 -16 -16 -16 -16 -16 -16 -17 -17 -18 -17 -16 -16 -16 -16 -16 -15
Height
5834 5835 5835 5836 5837 5837 5838 5838 5838 5839 5839 5839 5840 5840 5840 5840 5840 5841 5842 5842 5843 5844 5845 5845 5846 5846 5847 5847 5847 5848 5848 5848 5849 5849 5850 5851 5851 5852 5852 5853 5853 5854 5855
5830 5831 5832 5833 5834 5835 5836 5836 5836 5836 5837 5837 5838 5838 5838 5838 5838 5840 5840 5841 5841 5842 5844 5844 5844 5845 5845 5845 5846 5846 5846 5847 5848 5848 5849 5850 5850 5851 5852 5852 5853 5854 5854
5826 5826 5828 5829 5830 5831 5832 5833 5834 5834 5834 5835 5836 5836 5837 5837 5837 5837 5839 5839 5839 5840 5841 5842 5843 5843 5844 5844 5845 5845 5845 5846 5847 5848 5848 5849 5850 5850 5851 5852 5852 5853 5853
5822 5822 5823 5824 5826 5827 5829 5829 5830 5831 5832 5832 5833 5834 5834 5835 5835 5836 5836 5837 5838 5839 5839 5840 5841 5842 5842 5843 5843 5844 5844 5845 5846 5846 5847 5848 5849 5850 5850 5851 5852 5852 5852
5817 5816 5817 5820 5821 5822 5824 5825 5826 5827 5828 5829 5829 5830 5832 5832 5833 5834 5834 5834 5835 5836 5837 5837 5839 5840 5840 5841 5841 5842 5842 5843 5844 5845 5846 5847 5847 5848 5849 5850 5850 5851 5851
5811 5811 5812 5815 5815 5817 5819 5820 5822 5823 5824 5825 5826 5827 5828 5829 5830 5831 5832 5832 5833 5834 5835 5836 5836 5837 5838 5839 5839 5839 5840 5841 5842 5843 5844 5845 5846 5846 5847 5848 5848 5849 5849
5806 5808 5808 5808 5810 5811 5814 5815 5817 5819 5820 5820 5822 5823 5824 5825 5826 5828 5829 5829 5830 5831 5832 5832 5833 5834 5835 5836 5837 5837 5838 5839 5840 5841 5842 5842 5843 5844 5845 5846 5846 5846 5847
5801 5803 5803 5804 5805 5808 5809 5810 5812 5813 5815 5816 5817 5818 5819 5820 5822 5823 5824 5826 5827 5827 5828 5830 5830 5831 5832 5834 5835 5835 5836 5836 5837 5838 5839 5840 5841 5842 5842 5843 5844 5844 5845
5797 5799 5800 5800 5800 5803 5805 5806 5806 5808 5809 5811 5812 5814 5815 5816 5818 5819 5820 5821 5823 5824 5825 5826 5826 5827 5828 5829 5831 5832 5833 5833 5834 5834 5836 5837 5838 5839 5840 5840 5841 5841 5842
5793 5794 5794 5796 5797 5798 5800 5801 5802 5803 5805 5806 5808 5809 5810 5811 5813 5814 5815 5816 5818 5819 5820 5821 5822 5823 5823 5825 5826 5828 5830 5830 5830 5831 5831 5833 5835 5836 5837 5837 5838 5838 5839
5788 5788 5791 5792 5792 5794 5795 5796 5797 5798 5799 5801 5802 5803 5805 5806 5806 5808 5809 5811 5812 5814 5815 5816 5816 5817 5818 5819 5821 5823 5824 5826 5826 5826 5827 5829 5830 5832 5832 5833 5834 5835 5835
5784 5785 5787 5787 5788 5790 5791 5791 5792 5793 5794 5795 5796 5798 5799 5799 5800 5802 5803 5805 5805 5807 5808 5809 5810 5811 5812 5813 5815 5817 5819 5822 5822 5822 5822 5824 5825 5827 5828 5829 5830 5831 5831
5780 5782 5782 5783 5784 5785 5786 5787 5788 5788 5789 5790 5791 5792 5794 5794 5794 5795 5797 5798 5799 5800 5801 5802 5803 5805 5806 5807 5808 5810 5813 5815 5817 5817 5816 5819 5820 5821 5823 5823 5825 5826 5827
5777 5778 5779 5780 5780 5781 5782 5783 5784 5785 5785 5786 5787 5788 5788 5788 5789 5789 5790 5791 5792 5792 5793 5794 5796 5797 5799 5801 5803 5804 5806 5808 5810 5811 5810 5813 5814 5814 5816 5817 5819 5820 5822
5773 5775 5775 5776 5777 5778 5779 5780 5781 5781 5781 5782 5782 5783 5783 5783 5783 5783 5783 5784 5785 5785 5786 5787 5788 5789 5792 5794 5796 5796 5798 5800 5802 5803 5804 5804 5807 5808 5809 5812 5812 5813 5815
5770 5771 5772 5773 5773 5774 5776 5776 5776 5777 5777 5777 5777 5777 5777 5777 5777 5777 5777 5777 5778 5778 5778 5779 5780 5781 5783 5785 5782 5782 5784 5789 5793 5795 5796 5797 5798 5800 5801 5805 5804 5806 5808
5766 5766 5767 5768 5769 5770 5771 5771 5772 5772 5771 5772 5772 5772 5771 5771 5770 5770 5770 5771 5771 5770 5770 5770 5771 5772 5775 5775 5772 5773 5770 5779 5779 5783 5786 5789 5789 5791 5792 5796 5797 5799 5800
5761 5761 5762 5764 5765 5765 5764 5765 5765 5764 5763 5764 5763 5764 5764 5764 5763 5762 5762 5762 5762 5763 5762 5761 5761 5762 5764 5766 5765 5764 5765 5767 5768 5769 5774 5777 5778 5779 5782 5785 5788 5790 5792
5757 5757 5757 5758 5759 5758 5758 5758 5757 5756 5755 5754 5754 5753 5753 5754 5754 5754 5753 5752 5752 5752 5752 5753 5752 5752 5753 5754 5754 5755 5755 5756 5760 5759 5761 5764 5766 5768 5771 5775 5778 5781 5783
5751 5752 5751 5752 5752 5751 5750 5750 5749 5748 5747 5746 5745 5744 5743 5743 5742 5743 5742 5741 5741 5740 5740 5740 5741 5743 5743 5742 5741 5742 5744 5744 5747 5750 5753 5757 5757 5759 5761 5764 5766 5770 5773
5745 5745 5745 5744 5744 5743 5743 5742 5741 5740 5738 5736 5736 5735 5733 5732 5731 5731 5731 5730 5729 5728 5727 5727 5728 5729 5730 5730 5729 5729 5730 5731 5735 5737 5740 5744 5745 5747 5749 5752 5755 5758 5761
5739 5739 5738 5737 5736 5735 5734 5733 5732 5731 5729 5727 5725 5723 5722 5721 5720 5720 5719 5718 5716 5714 5714 5714 5714 5715 5715 5714 5714 5715 5716 5720 5722 5725 5727 5730 5733 5734 5737 5740 5742 5746 5748
5732 5731 5730 5729 5728 5726 5724 5723 5721 5720 5718 5717 5714 5712 5710 5709 5708 5707 5707 5706 5704 5702 5701 5700 5700 5701 5702 5702 5700 5701 5703 5706 5708 5711 5714 5717 5719 5722 5726 5727 5729 5733 5735
5724 5723 5721 5720 5718 5716 5714 5712 5711 5709 5707 5705 5703 5701 5699 5697 5695 5694 5693 5692 5691 5689 5688 5686 5687 5687 5689 5690 5689 5690 5690 5692 5694 5697 5701 5704 5706 5709 5712 5714 5715 5719 5725
5715 5714 5713 5711 5708 5705 5703 5701 5699 5697 5694 5693 5692 5690 5688 5685 5682 5681 5679 5677 5675 5673 5672 5672 5673 5674 5676 5677 5677 5678 5678 5680 5680 5683 5686 5690 5693 5696 5698 5701 5705 5707 5712
5707 5705 5703 5701 5697 5695 5693 5689 5686 5684 5683 5681 5680 5679 5677 5674 5669 5666 5663 5661 5659 5658 5657 5658 5658 5660 5662 5663 5664 5666 5667 5668 5669 5669 5672 5675 5678 5682 5684 5687 5692 5694 5698
Wind_Speed
21 19 19 19 19 18 17 17 17 17 16 16 13 12 11 11 11 11 10 11 9 8 8 9 10 9 9 9 8 7 7 8 9 10 8 8 7 6 4 5 9 10 8
26 23 21 22 22 22 21 20 19 19 19 19 17 14 13 12 11 12 12 12 11 10 11 11 11 11 10 10 10 9 8 9 10 10 9 9 8 7 7 6 7 9 9
29 29 26 25 25 24 23 22 21 20 20 20 19 18 15 14 13 14 13 13 13 11 13 11 11 11 12 12 12 12 10 11 11 11 10 9 9 8 7 7 6 8 9
30 32 31 28 26 27 27 25 23 22 22 22 21 20 18 16 15 15 14 14 14 12 14 10 11 11 12 13 13 14 13 13 12 12 11 10 9 9 8 8 7 9 8
26 31 33 34 31 27 28 27 24 23 22 23 23 22 20 18 16 15 14 15 15 14 15 14 12 11 11 13 14 15 15 15 14 13 12 11 10 10 9 9 9 10 10
25 27 27 26 30 27 27 26 26 24 24 24 24 24 24 22 19 17 15 16 16 17 16 15 15 14 13 13 14 15 16 16 16 15 14 13 12 11 10 10 11 11 11
23 25 27 29 29 28 27 26 26 25 25 26 25 24 25 26 24 21 19 17 19 19 18 17 16 16 15 14 14 15 16 18 18 17 16 15 14 13 12 12 13 13 14
21 22 25 28 29 26 29 29 28 27 27 27 26 25 25 24 25 25 24 23 22 21 20 20 20 18 18 17 17 17 17 18 19 20 18 18 17 15 14 14 14 14 15
23 21 23 26 26 26 29 29 29 29 29 27 27 26 25 25 25 25 26 26 26 26 25 24 24 23 22 21 20 19 19 20 21 22 21 21 19 18 17 16 16 16 16
20 21 23 25 26 25 25 27 29 30 30 29 29 29 29 29 28 28 27 28 28 28 29 29 28 29 28 26 24 24 22 22 23 24 24 23 22 21 20 19 18 18 17
23 20 24 22 24 26 26 28 28 29 29 28 27 29 31 31 32 31 32 32 31 30 30 31 32 32 32 31 29 28 27 24 25 26 26 26 26 25 24 22 20 19 18
22 21 25 22 23 22 23 24 25 26 26 26 24 27 29 31 33 32 34 34 34 34 34 34 34 35 34 34 34 31 30 28 28 28 29 29 29 28 27 26 24 22 21
20 22 23 22 22 21 23 25 26 26 25 26 27 30 32 31 31 32 32 35 36 36 38 38 38 38 37 37 39 37 36 32 30 31 32 31 32 32 30 30 28 26 24
20 20 19 18 18 18 19 20 21 22 23 23 25 26 28 30 32 33 34 34 36 39 40 40 41 42 41 40 41 42 40 39 38 35 36 34 34 35 34 33 33 31 29
18 18 19 19 19 18 17 17 17 17 17 18 19 20 22 26 30 32 33 35 37 39 39 41 43 43 42 43 44 46 46 42 41 40 40 39 38 38 38 36 37 36 35
17 17 18 20 19 18 19 19 20 21 21 22 24 26 26 27 26 26 29 32 36 38 40 42 43 44 44 45 51 46 53 49 45 47 45 44 45 41 41 38 41 41 39
19 19 20 22 22 23 24 24 25 26 26 26 26 27 28 30 31 33 34 33 32 32 36 42 45 45 46 46 50 50 34 44 52 51 49 48 50 48 45 42 42 43 43
21 22 24 25 25 26 27 28 29 31 32 33 33 33 33 34 35 37 38 40 40 40 40 39 39 41 47 50 52 54 55 51 40 38 48 54 56 54 51 48 45 45 44
23 23 24 26 27 28 29 31 32 34 35 36 36 36 37 38 38 39 41 43 44 45 46 45 46 45 44 46 52 55 57 59 58 56 47 37 54 50 53 52 49 49 47
23 25 26 28 29 30 32 33 34 36 37 38 38 38 38 40 41 42 43 45 46 48 49 50 50 50 50 51 52 54 59 61 61 60 57 55 54 50 51 54 58 51 51
23 25 26 28 29 31 33 34 36 38 39 39 39 38 40 42 44 44 44 45 46 47 49 50 52 54 53 54 55 57 55 58 61 63 64 58 60 57 55 59 54 58 54
24 26 28 30 32 33 35 37 39 39 40 40 41 42 43 44 45 45 45 45 45 46 48 51 51 53 54 54 55 56 57 57 56 59 63 59 59 59 57 55 55 62 60
28 29 31 33 35 36 38 39 41 42 41 41 42 44 46 47 46 46 46 45 47 48 49 51 50 47 44 43 45 50 54 56 55 55 56 57 57 58 55 58 51 41 45
32 33 34 36 38 40 42 42 42 42 42 43 43 44 45 46 47 48 48 50 51 53 52 53 51 49 46 45 44 45 45 47 55 54 54 53 55 56 59 65 67 54 44
36 36 38 39 41 43 43 43 42 43 43 42 41 42 43 46 49 50 52 55 56 54 53 53 55 53 50 52 51 50 49 48 47 55 52 53 56 55 60 65 58 60 53
39 38 40 41 44 45 42 41 42 41 41 41 41 41 43 46 50 54 57 57 55 53 53 53 56 54 53 55 54 52 50 48 44 48 52 49 52 55 53 58 58 56 56
Wind_Direction
273 272 274 277 279 274 275 277 276 278 280 284 285 287 282 271 270 267 262 268 261 255 258 262 261 260 255 239 234 243 240 234 220 220 213 205 202 201 198 205 197 202 204
272 271 271 274 274 273 272 274 275 272 273 276 279 281 281 273 262 263 261 262 261 263 262 258 255 253 251 248 239 238 239 229 227 227 222 207 201 202 206 210 207 213 215
266 271 272 270 268 268 268 269 271 270 266 267 269 274 276 276 269 260 257 257 256 261 269 265 256 253 247 245 247 240 238 234 228 229 220 212 213 206 212 209 218 224 224
259 263 268 268 265 267 267 267 266 265 263 261 261 262 264 267 270 268 259 250 254 257 269 258 255 251 246 243 244 242 240 235 229 227 224 220 216 218 211 221 226 237 239
258 260 258 260 265 260 261 260 261 260 258 256 255 253 254 256 263 271 261 252 255 257 264 267 259 257 247 246 246 240 239 238 231 226 227 231 228 227 229 230 226 239 245
252 254 259 262 263 258 252 253 256 257 256 255 255 253 250 251 253 260 262 254 255 259 261 266 263 258 256 249 246 245 240 238 234 230 226 230 236 235 235 235 237 238 245
254 250 251 253 254 257 256 253 250 254 256 254 255 255 254 252 252 253 256 257 255 257 259 262 265 264 259 255 249 244 241 241 237 232 234 233 237 240 241 242 243 240 243
256 255 253 253 254 254 254 252 250 249 251 252 253 253 253 255 257 256 253 253 254 255 256 258 259 261 259 257 254 247 241 241 243 241 237 240 239 241 244 245 246 245 246
251 250 254 255 254 252 254 254 251 248 247 250 248 254 255 256 256 257 259 258 256 255 255 254 256 257 260 256 254 251 246 243 242 243 241 240 243 243 243 245 245 246 248
250 251 246 248 250 247 247 247 249 248 248 249 248 252 256 256 257 256 256 258 258 257 256 257 255 255 257 256 253 251 247 244 244 243 242 242 242 244 245 245 246 247 247
251 252 252 248 249 247 244 242 247 250 251 251 251 249 251 250 253 257 259 258 257 256 255 254 257 257 257 257 254 252 250 246 247 245 242 242 242 242 244 246 247 249 249
250 245 256 249 244 244 249 248 244 246 249 250 246 259 255 253 254 252 253 258 256 253 254 254 254 256 256 257 257 256 252 253 251 250 247 242 243 243 244 246 245 247 247
261 250 247 247 247 245 243 243 246 248 248 249 248 246 253 255 256 256 253 251 255 256 255 253 253 253 255 256 257 256 254 253 254 256 254 248 244 243 243 247 246 245 244
239 241 241 238 240 244 246 246 249 252 254 254 254 254 255 256 256 257 258 257 256 255 254 254 254 255 255 255 258 259 256 255 251 255 257 255 251 247 242 243 247 247 246
238 241 245 245 243 242 244 250 254 257 261 264 267 268 268 266 263 261 261 260 259 259 259 258 258 256 256 258 257 259 260 254 252 253 254 256 253 253 250 243 245 245 245
238 241 244 243 246 249 253 257 260 262 265 267 270 273 275 275 273 271 269 266 264 263 264 261 260 259 257 255 258 251 254 257 255 253 254 253 254 252 251 247 247 246 245
244 250 253 255 256 259 262 264 265 267 270 272 272 273 275 276 276 275 273 272 271 271 267 265 263 261 259 257 256 256 258 259 256 254 255 257 254 251 251 248 248 248 247
250 253 258 261 263 265 267 270 273 274 274 274 275 275 274 272 272 272 272 272 272 272 270 270 269 266 262 260 259 259 260 255 260 252 255 259 250 250 251 251 248 248 249
256 259 262 263 263 265 267 269 271 272 274 276 275 275 275 274 273 272 272 271 271 271 269 268 268 269 269 266 260 258 259 259 259 254 263 271 248 249 249 249 253 251 250
261 264 266 268 268 268 269 272 274 274 274 273 273 276 278 278 277 274 274 274 273 271 270 269 267 267 269 270 265 259 257 257 255 256 257 251 250 257 258 253 251 254 254
266 269 272 274 273 273 273 273 275 275 276 277 278 279 279 279 278 276 276 275 273 272 270 269 270 270 268 266 265 265 261 259 258 258 258 254 258 260 261 262 261 255 253
271 273 274 275 276 277 277 277 277 277 279 280 281 282 281 278 277 276 276 275 274 274 275 272 269 269 269 269 268 265 264 261 259 255 259 259 256 257 257 257 250 247 250
272 274 277 281 283 281 281 282 281 281 282 282 282 281 280 279 278 277 275 277 277 276 277 271 267 264 263 266 268 269 268 266 263 259 256 258 256 254 253 240 239 249 259
276 277 283 287 287 288 287 286 284 283 283 281 279 278 279 278 276 277 279 280 278 277 273 268 260 260 260 263 266 272 276 272 262 262 258 251 255 253 249 251 254 254 252
277 280 283 288 290 292 291 289 288 287 284 281 279 277 276 278 279 281 281 282 280 274 268 263 258 260 262 261 264 270 275 278 275 263 263 258 252 252 251 250 255 259 251
276 282 286 292 294 292 293 292 290 286 283 282 280 278 278 281 285 286 285 280 275 271 265 263 260 259 262 260 261 265 267 272 275 268 261 259 254 254 253 254 253 252 248